Home > Weather > Fukushima > Past weeks

Flag for Japan Weather for the Past 2 Weeks in Fukushima, Japan

Now
31 °F

Chilly.


Feels Like: 24 °F
Forecast: 19 / 44 °F
Wind: 8 mph from Northwest

Location: Wakamatsu

Current Time: Feb 11, 2016 at 1:24:00 AM

Latest Report: Feb 11, 2016 at 12:00 AM


Visibility: 13 mi

Pressure: 30.35 "Hg

Humidity: 67%

Dew point: 22 °F

Location of FukushimaLocation

Historic Weather in Fukushima — Graph

°F

Fukushima Temperature Yesterday

Maximum temperature yesterday: 38 °F (at 2:00 PM)
Minimum temperature yesterday: 30 °F (at 8:00 AM)
Average temperature yesterday: 34 °F

High & Low Weather Summary for the Past Weeks

 TemperatureHumidityPressure
High43 °F (Jan 28, 2:00 PM)100% (Jan 29, 6:00 PM)30.36 "Hg (Jan 29, 6:00 PM)
Low19 °F (Feb 8, 6:00 AM)50% (Feb 10, 3:00 PM)29.76 "Hg (Feb 9, 1:00 PM)
Average33 °F83%30.15 "Hg
* Reported Midnight between Jan 26 and Jan 27 — Midnight between Feb 10 and Feb 11, Fukushima, Weather by CustomWeather, © 2016

Note: Actual official high and low records may vary slightly from our data, if they occured in-between our weather recording intervals... More about our weather records

Advertising

Fukushima Weather History for the Previous 24 Hours

 ConditionsComfort  
Time TempWeatherWind HumidityBarometerVisibility
12:00 AM
Thu, Feb 11
31 °FChilly.8 mph67%30.35 "Hg12 mi
11:00 PM
Wed, Feb 10
32 °FChilly.10 mph69%30.34 "Hg12 mi
10:00 PM32 °FChilly.12 mph65%30.32 "Hg12 mi
9:00 PM32 °FChilly.12 mph65%30.31 "Hg12 mi
8:00 PM32 °FChilly.8 mph63%30.30 "Hg12 mi
7:00 PM33 °FChilly.9 mph59%30.29 "Hg12 mi
6:00 PM33 °FChilly.12 mph56%30.26 "Hg12 mi
5:00 PM34 °FChilly.13 mph56%30.22 "Hg12 mi
4:00 PM36 °FChilly.16 mph54%30.19 "Hg12 mi
3:00 PM37 °FChilly.21 mph50%30.16 "Hg12 mi
2:00 PM38 °FChilly.17 mph53%30.13 "Hg12 mi
1:00 PM38 °FChilly.18 mph54%30.13 "Hg12 mi
12:00 PM38 °FChilly.16 mph54%30.13 "Hg12 mi
11:00 AM37 °FChilly.13 mph57%30.14 "Hg12 mi
8:00 AM30 °FLight snow. Cloudy.2 mph74%30.12 "Hg12 mi
6:00 AM30 °FChilly.3 mph70%30.07 "Hg11 mi
5:00 AM31 °FChilly.10 mph70%30.04 "Hg11 mi
4:00 AM31 °FChilly.14 mph72%30.01 "Hg9 mi
3:00 AM31 °FLight snow. Overcast.13 mph75%29.98 "Hg12 mi
2:00 AM31 °FLight snow. Overcast.15 mph83%29.96 "Hg6 mi
Weather by CustomWeather, © 2016

See weather overviewHow to use our weather pages